GWARB EGGP-EGGP

Flight info

Callsign GWARB
Flight time 0h 39m
Altitude 3000
Route VFR CIRUITS
Aircraft P28B/L-SDFGRY/S

Departure

Time 2026-05-07 16:07
Airport Liverpool John Lennon Airport (EGGP)

Arrival

Time 2026-05-07 16:46
Airport Liverpool John Lennon Airport (EGGP)
Time Latitude Longitude Altitude Speed Heading
2026-05-07 15:49 53.33543 -2.85845 89 ft 0 kts 176°
2026-05-07 15:54 53.33544 -2.85845 89 ft 2 kts 175°
2026-05-07 15:54 53.33558 -2.85847 91 ft 2 kts 175°
2026-05-07 15:54 53.33572 -2.85849 91 ft 0 kts 133°
2026-05-07 15:55 53.33582 -2.85867 89 ft 2 kts 133°
2026-05-07 15:55 53.33593 -2.85887 89 ft 2 kts 116°
2026-05-07 15:55 53.33594 -2.85890 89 ft 0 kts 82°
2026-05-07 15:57 53.33599 -2.85823 89 ft 12 kts 78°
2026-05-07 15:57 53.33604 -2.85703 89 ft 10 kts 88°
2026-05-07 15:57 53.33608 -2.85594 89 ft 9 kts 82°
2026-05-07 15:57 53.33589 -2.85514 91 ft 8 kts 164°
2026-05-07 15:58 53.33581 -2.85512 89 ft 0 kts 168°
2026-05-07 15:58 53.33542 -2.85506 89 ft 14 kts 173°
2026-05-07 15:58 53.33498 -2.85620 89 ft 13 kts 267°
2026-05-07 15:59 53.33494 -2.85740 90 ft 5 kts 263°
2026-05-07 15:59 53.33491 -2.85825 89 ft 11 kts 267°
2026-05-07 15:59 53.33481 -2.86025 91 ft 20 kts 266°
2026-05-07 15:59 53.33471 -2.86243 89 ft 18 kts 265°
2026-05-07 16:00 53.33458 -2.86395 89 ft 7 kts 239°
2026-05-07 16:00 53.33417 -2.86431 89 ft 7 kts 178°
2026-05-07 16:00 53.33389 -2.86428 89 ft 0 kts 175°
2026-05-07 16:05 53.33386 -2.86427 89 ft 2 kts 173°
2026-05-07 16:05 53.33321 -2.86388 89 ft 18 kts 136°
2026-05-07 16:06 53.33311 -2.86089 89 ft 47 kts 86°
2026-05-07 16:06 53.33348 -2.85240 150 ft 92 kts 86°
2026-05-07 16:06 53.33402 -2.84112 456 ft 101 kts 85°
2026-05-07 16:06 53.33436 -2.83386 599 ft 109 kts 85°
2026-05-07 16:07 53.33488 -2.82093 939 ft 109 kts 87°
2026-05-07 16:07 53.33515 -2.80839 1300 ft 108 kts 88°
2026-05-07 16:07 53.33115 -2.79823 1473 ft 120 kts 162°
2026-05-07 16:07 53.32305 -2.79948 1895 ft 105 kts 197°
2026-05-07 16:08 53.31654 -2.80542 2073 ft 119 kts 238°
2026-05-07 16:08 53.31554 -2.81977 2126 ft 133 kts 268°
2026-05-07 16:08 53.31529 -2.83539 2223 ft 134 kts 268°
2026-05-07 16:08 53.31481 -2.85093 2304 ft 133 kts 265°
2026-05-07 16:09 53.31405 -2.86640 2357 ft 135 kts 264°
2026-05-07 16:09 53.31255 -2.88207 2393 ft 135 kts 257°
2026-05-07 16:09 53.31284 -2.89764 2281 ft 144 kts 297°
2026-05-07 16:09 53.32057 -2.90555 1902 ft 129 kts 357°
2026-05-07 16:10 53.32952 -2.90356 1289 ft 131 kts 12°
2026-05-07 16:10 53.33760 -2.90256 1160 ft 99 kts 331°
2026-05-07 16:10 53.33720 -2.91040 1002 ft 97 kts 172°
2026-05-07 16:10 53.33404 -2.90088 797 ft 104 kts 109°
2026-05-07 16:11 53.33231 -2.88879 567 ft 108 kts 97°
2026-05-07 16:11 53.33245 -2.87646 334 ft 102 kts 85°
2026-05-07 16:11 53.33293 -2.86503 146 ft 94 kts 85°
2026-05-07 16:11 53.33336 -2.85502 117 ft 78 kts 84°
2026-05-07 16:12 53.33387 -2.84456 328 ft 98 kts 84°
2026-05-07 16:12 53.33462 -2.83286 638 ft 105 kts 83°
2026-05-07 16:12 53.33535 -2.82048 933 ft 111 kts 86°
2026-05-07 16:12 53.33158 -2.81103 1179 ft 115 kts 174°
2026-05-07 16:13 53.32351 -2.81107 1439 ft 118 kts 189°
2026-05-07 16:13 53.31963 -2.82185 1467 ft 131 kts 277°
2026-05-07 16:13 53.31942 -2.83707 1491 ft 134 kts 267°
2026-05-07 16:13 53.31897 -2.85258 1522 ft 132 kts 267°
2026-05-07 16:14 53.31856 -2.86782 1532 ft 132 kts 266°
2026-05-07 16:14 53.31819 -2.88262 1519 ft 120 kts 268°
2026-05-07 16:14 53.31935 -2.89514 1413 ft 108 kts 304°
2026-05-07 16:14 53.32647 -2.89837 1028 ft 115 kts 10°
2026-05-07 16:15 53.33275 -2.89110 627 ft 114 kts 75°
2026-05-07 16:15 53.33247 -2.87844 338 ft 106 kts 89°
2026-05-07 16:15 53.33288 -2.86650 161 ft 99 kts 87°
2026-05-07 16:15 53.33334 -2.85582 95 ft 82 kts 85°
2026-05-07 16:16 53.33370 -2.84730 89 ft 66 kts 84°
2026-05-07 16:16 53.33414 -2.83735 214 ft 97 kts 87°
2026-05-07 16:16 53.33446 -2.82586 559 ft 100 kts 87°
2026-05-07 16:16 53.33475 -2.81378 849 ft 108 kts 88°
2026-05-07 16:17 53.33141 -2.80289 1043 ft 121 kts 155°
2026-05-07 16:17 53.32347 -2.80619 1227 ft 126 kts 227°
2026-05-07 16:17 53.32117 -2.81524 1260 ft 134 kts 258°
2026-05-07 16:17 53.31950 -2.83119 1304 ft 141 kts 261°
2026-05-07 16:18 53.31803 -2.84690 1293 ft 136 kts 262°
2026-05-07 16:18 53.31629 -2.86247 1199 ft 135 kts 259°
2026-05-07 16:18 53.31620 -2.87778 1210 ft 129 kts 275°
2026-05-07 16:18 53.31693 -2.89278 1186 ft 130 kts 274°
2026-05-07 16:19 53.31759 -2.90798 1157 ft 132 kts 273°
2026-05-07 16:19 53.31791 -2.92320 1170 ft 129 kts 270°
2026-05-07 16:19 53.31790 -2.93811 1221 ft 124 kts 271°
2026-05-07 16:19 53.31910 -2.95206 1252 ft 121 kts 247°
2026-05-07 16:20 53.31390 -2.96248 1293 ft 120 kts 255°
2026-05-07 16:20 53.31624 -2.97593 1259 ft 127 kts 308°
2026-05-07 16:20 53.32280 -2.98584 1274 ft 128 kts 320°
2026-05-07 16:20 53.32951 -2.99528 1329 ft 126 kts 317°
2026-05-07 16:21 53.33331 -3.00765 1287 ft 128 kts 262°
2026-05-07 16:21 53.32706 -3.01674 1327 ft 126 kts 182°
2026-05-07 16:21 53.32046 -3.00749 1256 ft 133 kts 123°
2026-05-07 16:21 53.31568 -2.99499 1352 ft 128 kts 120°
2026-05-07 16:22 53.31167 -2.98124 1343 ft 132 kts 113°
2026-05-07 16:22 53.31138 -2.96682 1356 ft 132 kts 56°
2026-05-07 16:22 53.31929 -2.96051 1352 ft 127 kts 11°
2026-05-07 16:22 53.32521 -2.94889 1106 ft 143 kts 65°
2026-05-07 16:23 53.32848 -2.93339 891 ft 133 kts 76°
2026-05-07 16:23 53.32991 -2.91887 698 ft 119 kts 80°
2026-05-07 16:23 53.33095 -2.90562 564 ft 112 kts 82°
2026-05-07 16:23 53.33177 -2.89296 432 ft 107 kts 84°
2026-05-07 16:24 53.33225 -2.88070 311 ft 106 kts 86°
2026-05-07 16:24 53.33277 -2.86855 199 ft 103 kts 84°
2026-05-07 16:24 53.33330 -2.85662 97 ft 97 kts 85°
2026-05-07 16:24 53.33376 -2.84659 91 ft 77 kts 85°
2026-05-07 16:25 53.33422 -2.83710 251 ft 90 kts 85°
2026-05-07 16:25 53.33486 -2.82589 483 ft 103 kts 81°
2026-05-07 16:25 53.33601 -2.81341 702 ft 114 kts 78°
2026-05-07 16:25 53.33751 -2.79995 877 ft 121 kts 80°
2026-05-07 16:26 53.33959 -2.78625 1063 ft 122 kts 70°
2026-05-07 16:26 53.34277 -2.77255 1111 ft 128 kts 61°
2026-05-07 16:26 53.34874 -2.76219 1284 ft 119 kts 42°
2026-05-07 16:26 53.35494 -2.75291 1347 ft 124 kts 37°
2026-05-07 16:27 53.36190 -2.74436 1436 ft 123 kts 35°
2026-05-07 16:27 53.36946 -2.73764 1501 ft 122 kts 24°
2026-05-07 16:27 53.37699 -2.73132 1593 ft 122 kts 27°
2026-05-07 16:27 53.38430 -2.72399 1669 ft 122 kts 31°
2026-05-07 16:28 53.39165 -2.71684 1772 ft 122 kts 25°
2026-05-07 16:28 53.39786 -2.71321 1826 ft 123 kts 11°
2026-05-07 16:36 53.40037 -2.71247 1845 ft 122 kts
2026-05-07 16:37 53.40881 -2.71139 1927 ft 119 kts 358°
2026-05-07 16:37 53.41406 -2.72013 1975 ft 119 kts 274°
2026-05-07 16:37 53.40930 -2.73083 1836 ft 133 kts 201°
2026-05-07 16:37 53.40115 -2.73594 2005 ft 120 kts 205°
2026-05-07 16:38 53.39443 -2.74487 1988 ft 125 kts 231°
2026-05-07 16:38 53.38955 -2.75618 2142 ft 117 kts 237°
2026-05-07 16:38 53.38546 -2.76845 2133 ft 124 kts 245°
2026-05-07 16:38 53.38240 -2.78196 2127 ft 127 kts 251°
2026-05-07 16:39 53.38016 -2.79659 2120 ft 128 kts 261°
2026-05-07 16:39 53.37834 -2.81092 2198 ft 125 kts 256°
2026-05-07 16:39 53.37724 -2.82514 2248 ft 124 kts 265°
2026-05-07 16:39 53.37638 -2.83979 2194 ft 128 kts 253°
2026-05-07 16:40 53.37394 -2.85463 2138 ft 130 kts 256°
2026-05-07 16:40 53.37263 -2.86910 2219 ft 125 kts 265°
2026-05-07 16:40 53.37024 -2.88316 2140 ft 130 kts 231°
2026-05-07 16:40 53.36378 -2.89303 2024 ft 120 kts 217°
2026-05-07 16:41 53.35600 -2.89905 1579 ft 127 kts 193°
2026-05-07 16:41 53.34727 -2.89973 1236 ft 125 kts 179°
2026-05-07 16:41 53.33877 -2.89787 979 ft 120 kts 164°
2026-05-07 16:41 53.33336 -2.88818 659 ft 119 kts 116°
2026-05-07 16:42 53.33247 -2.87495 287 ft 113 kts 85°
2026-05-07 16:42 53.33303 -2.86257 102 ft 99 kts 85°
2026-05-07 16:42 53.33356 -2.85223 100 ft 91 kts 84°
2026-05-07 16:42 53.33404 -2.84021 300 ft 110 kts 85°
2026-05-07 16:43 53.33420 -2.82696 561 ft 118 kts 97°
2026-05-07 16:43 53.32832 -2.81815 739 ft 124 kts 178°
2026-05-07 16:43 53.31987 -2.81851 1051 ft 122 kts 188°
2026-05-07 16:43 53.31483 -2.82884 1099 ft 133 kts 269°
2026-05-07 16:44 53.31480 -2.84478 1163 ft 142 kts 270°
2026-05-07 16:44 53.31485 -2.86239 999 ft 156 kts 270°
2026-05-07 16:44 53.31602 -2.88003 966 ft 145 kts 289°
2026-05-07 16:44 53.32306 -2.88744 721 ft 119 kts
2026-05-07 16:45 53.33049 -2.88260 427 ft 108 kts 34°
2026-05-07 16:45 53.33263 -2.87194 206 ft 97 kts 85°
2026-05-07 16:45 53.33309 -2.86140 97 ft 83 kts 84°
2026-05-07 16:45 53.33352 -2.85277 89 ft 67 kts 85°
2026-05-07 16:46 53.33376 -2.84745 89 ft 34 kts 83°
2026-05-07 16:46 53.33447 -2.84455 91 ft 14 kts 59°
2026-05-07 16:46 53.33488 -2.84338 90 ft 7 kts 61°
2026-05-07 16:46 53.33490 -2.84332 90 ft 0 kts 60°
2026-05-07 16:47 53.33491 -2.84330 90 ft 1 kts 60°
2026-05-07 16:47 53.33491 -2.84328 90 ft 0 kts 58°
2026-05-07 16:48 53.33516 -2.84267 89 ft 14 kts 36°
2026-05-07 16:48 53.33555 -2.84375 89 ft 15 kts 267°
2026-05-07 16:48 53.33547 -2.84582 89 ft 19 kts 265°
2026-05-07 16:49 53.33535 -2.84848 89 ft 27 kts 266°
2026-05-07 16:49 53.33521 -2.85154 89 ft 27 kts 265°
2026-05-07 16:49 53.33512 -2.85370 89 ft 9 kts 265°
2026-05-07 16:49 53.33510 -2.85489 89 ft 12 kts 310°
2026-05-07 16:50 53.33597 -2.85520 91 ft 14 kts 325°
2026-05-07 16:50 53.33603 -2.85672 89 ft 15 kts 266°
2026-05-07 16:50 53.33597 -2.85785 89 ft 13 kts 266°
2026-05-07 16:50 53.33579 -2.85850 91 ft 6 kts 174°
2026-05-07 16:51 53.33538 -2.85844 89 ft 0 kts 176°